Torna al catalogo

SL-8 DEB

AttivoLEO
NORAD 21110·DEBRIS·🇷🇺 Russia

Lanciato Feb 12, 1991 da Plesetsk Cosmodrome

Loading…

Prossimi Passaggi (prossime 24 ore)

TLE

AggiornatoSource: Space-Track

Epoca: Sep 14, 2026, 11:03 UTC

1 21110U 91009L   26257.46049687  .00000508  00000-0  52470-2 0  9993
2 21110  74.0468  75.3879 0217836 178.7999 207.4391 12.11073561569814

Traccia SL-8 DEB in tempo reale con AllMySat

Download on the App Store